Regional Weather Roundup
Issued by NWS Grand Forks, ND

Home | Current Version | Previous Version | Graphics & Text | Print | Product List | Glossary On
Versions: 1 2 3 4 5 6 7 8 9 10 11 12 13 14 15 16 17 18 19 20 21 22 23 24 25 26 27 28 29 30 31 32 33 34 35 36 37 38 39 40 41 42 43 44 45 46 47 48 49 50
000
ASUS43 KFGF 061931
RWRFGF
PRAIRIE TO PINES  WEATHER ROUNDUP
NATIONAL WEATHER SERVICE EASTERN NORTH DAKOTA/GRAND FORKS ND
200 PM CDT FRI MAY 06 2016

 **SATELLITE DATA USED TO AUGMENT SKY COVER AT AUTOMATED STATIONS**
 *****  WEATHER ACROSS EASTERN NORTH DAKOTA  *****

CITY           SKY/WX    TMP DP  RH WIND       PRES   REMARKS
GRAND FORKS    MOSUNNY   72  43  35 N26G39    29.87R
GRAND FRKS AFB SUNNY     71  41  33 N25G37    29.89R
DEVILS LAKE    SUNNY     69  43  38 N23G32    29.95R
FARGO          CLOUDY    75  44  33 N25G35    29.80R
WAHPETON ARPT  CLEAR     86  41  20 N31G40    29.76R
$$

 ***** WEATHER ACROSS CENTRAL AND WESTERN NORTH DAKOTA  *****

CITY           SKY/WX    TMP DP  RH WIND       PRES   REMARKS
BISMARCK       SUNNY     77  49  37 N18G26    29.96S
MINOT          CLOUDY    70  43  37 N20G28    30.03R
JAMESTOWN      LGT RAIN  74  45  35 N24G30    29.89S
MINOT AFB      CLOUDY    65  46  51 N13G25    30.02S
GARRISON         N/A     69  46  43 N15G25    30.02
WILLISTON      PTSUNNY   67  43  41 N16G23    30.11F
DICKINSON      PTSUNNY   68  45  43 N21G29    30.04R
HETTINGER      LGT RAIN  73  46  38 N22G31    30.02S
$$

 *****  OTHER AIRPORT OBSERVATIONS IN OUR AREA  *****

CITY           SKY/WX    TMP DP  RH WIND       PRES   REMARKS
WALHALLA       FAIR      59  37  44 N21G26    29.97R
GRAFTON AIRPOR FAIR      70  41  35 N25G36    29.92R
VALLEY CITY AR FAIR      72  46  40 N22G28    29.90R
CANDO          FAIR      59  41  51 N16       30.02R
CAVALIER APRT  FAIR      61  39  44 N21G32    29.95R
GWINNER        FAIR      84  46  26 N25G32    29.81R
SHEYENNE NWR     N/A     79  44  28 N18       29.95S
ROLLA          FAIR      64  32  29 N25G35    30.00R
 ***** THE ABOVE OBSERVATIONS ARE NON NWS ARE NOT QUALITY
       CONTROLLED AND MAY MIS-REPORT RAIN FOR SNOW...
$$

  *****  WEATHER ACROSS NORTHERN MINNESOTA  *****

CITY           SKY/WX    TMP DP  RH WIND       PRES   REMARKS
FLAG ISLAND    CLOUDY    63  45  51 NW23G29   29.80R
WARROAD        CLOUDY    66  46  48 NW17G31   29.81S
ROSEAU         CLOUDY    66  43  42 N21G26    29.82R
HALLOCK        CLOUDY    66  34  30 N29G35    29.88S
THF RVR FALLS  SUNNY     70  41  35 NW24      29.87R
BAUDETTE       PTSUNNY   70  44  39 NW20G31   29.76R
WASKISH        SUNNY     75  48  38 NW18G25   29.74R
CROOKSTON      SUNNY     72  41  33 N28G35    29.86R
STEPHEN NDAWN    N/A     68  39  34 N22         N/A
GREENBUSH NDAW   N/A     64  43  45 NW20        N/A
$$
  *****  WEATHER ACROSS CENTRAL AND WEST MINNESOTA  *****

CITY           SKY/WX    TMP DP  RH WIND       PRES   REMARKS
FOSSTON        CLOUDY    75  43  31 NW24G31   29.81R
BEMIDJI        CLOUDY    80  49  33 NW23      29.75R
PARK RAPIDS    SUNNY     90  46  21 W13       29.71F
ELBOW LAKE     FAIR      85  50  30 NW9       29.74F
WADENA         SUNNY     84  52  32 W8        29.73F
DETROIT LAKES  MOSUNNY   79  45  29 NW25G36   29.80R
MOORHEAD       MOSUNNY   79  43  27 N29       29.80F
FERGUS FALLS   SUNNY     88  54  31 NW21G28   29.70S
MORRIS MN      SUNNY     88  52  29 NW8G22    29.73F
STAPLES        SUNNY     86  50  28 SW12G17   29.72F
$$
  *****  WEATHER ELSEWHERE ACROSS MINNESOTA  *****

CITY           SKY/WX    TMP DP  RH WIND       PRES   REMARKS
DULUTH         MOSUNNY   91  44  19 W21G29    29.68F
INTRNTL FALLS  CLOUDY    80  47  31 W18G30    29.68R HAZE
ELY            CLOUDY    86  37  17 W15G23    29.64S
CLOQUET        SUNNY     90  36  14 W14G28    29.68F
WHEATON        SUNNY     91  54  27 W15       29.75S
BRAINERD       SUNNY     85  51  31 SW13      29.72S
HIBBING        CLOUDY    86  43  22 W14G28    29.66F
ALEXANDRIA     SUNNY     82  52  35 MISG      29.77F
SAINT CLOUD    SUNNY     87  50  27 SW15      29.73F
MINNEAPOLIS    MOSUNNY   88  47  24 SW16G25   29.75F
$$

  *****  WEATHER ACROSS SOUTH DAKOTA  *****

CITY           SKY/WX    TMP DP  RH WIND       PRES   REMARKS
SIOUX FALLS    PTSUNNY   82  54  37 SW15G26   29.83F
BROOKINGS      MOSUNNY   85  53  33 W16G23    29.81S
WATERTOWN      SUNNY     88  49  25 W8        29.80F
HURON          MOSUNNY   87  52  29 W8        29.81S
SISSETON         N/A     91  49  23 NW14G24   29.74F
ABERDEEN       SUNNY     92  49  22 N16G25    29.78S
MITCHELL       SUNNY     87  54  32 W15G25    29.82F
PIERRE         PTSUNNY   82  56  40 N9        29.83F
MOBRIDGE       MOSUNNY   81  39  22 N21G32    29.86R
RAPID CITY     PTSUNNY   75  49  39 N26G38    29.94S
$$

  *****  SOME WEATHER IN NEARBY STATES *****

CITY           SKY/WX    TMP DP  RH WIND       PRES   REMARKS
GLASGOW MT     MOSUNNY   68  33  27 N18       30.18F
GREAT FALLS MT CLOUDY    54  42  64 NE7       30.26F
CHEYENNE WY    MOSUNNY   75  40  28 S9        29.99F
SCOTTSBLUFF NE CLOUDY    75  49  39 SE10      29.92F
OMAHA NE       MOSUNNY   85  42  22 SW14      29.93F
DES MOINES IA  MOSUNNY   85  43  22 W21       29.95F
DAVENPORT IA   SUNNY     83  42  23 W12       29.93F
CHICAGO IL     MOSUNNY   76  44  32 SW12G18   29.88F
EAU CLAIRE WI  SUNNY     88  46  23 W16G22    29.77F
LA CROSSE WI   SUNNY     90  43  19 W12       29.80F
$$

  *****  SOME NATIONAL WEATHER *****

CITY           SKY/WX    TMP DP  RH WIND       PRES   REMARKS
LA GUARDIA NY  CLOUDY    54  51  90 E15       29.73S
RALEIGH NC     PTSUNNY   63  49  60 NW10G18   29.75S
ATLANTA GA     PTSUNNY   69  40  34 N17G32    29.92S
NEW ORLEANS LA MOSUNNY   76  50  40 N10G17    30.06F
OKLAHOMA CITY  PTSUNNY   79  50  36 SE14      30.08F
ALBUQUERQUE NM MOSUNNY   81  14   8 S31G44    29.95F
SALT LAKE CITY HAIL      61  48  62 SW21G37   29.77S
LOS ANGELES CA PTSUNNY   65  54  67 SW12      29.90S
BOISE ID       CLOUDY    67  51  56 N3        29.82F
SEATTLE WA     MOSUNNY   69  43  38 N14G20    30.07F
$$

*** WEATHER ACROSS MANITOBA...SASKATCHEWAN AND ONTARIO ***
                ***ONTARIO***

CITY           SKY/WX    TMP DP  RH WIND       PRES   REMARKS
GERALDTON      CLOUDY    72  45  37 S13G25    29.55F
THUNDER BAY    PTSUNNY   59  41  51 NE14      29.59F
SIOUX LOOKOUT  MOSUNNY   75  48  38 NW20G30   29.62R
TORONTO        MOSUNNY   68  39  34 SE6       29.83F
BIG TROUT LK   CLOUDY    36  25  64 N8        29.71R
PICKLE LAKE    LGT RAIN  50  39  66 VRB10G22  29.66R
DRYDEN         SUNNY     75  45  33 NW20G29   29.65R
KENORA         SMOKE     63  39  42 N15G28    29.79R VSB 1
$$
                *** MANITOBA***

CITY           SKY/WX    TMP DP  RH WIND       PRES   REMARKS
BRANDON        CLOUDY    64  34  32 N18       30.01R
DAUPHIN        MOSUNNY   68  32  26 N18       29.97F
ISLAND LAKE    PTSUNNY   46  32  57 NW16      29.84R
PILOT MOUND      N/A     63  34  34 N17G24      N/A
THE PAS        PTSUNNY   55  27  33 NW15      30.00S
THOMPSON       PTSUNNY   50  36  57 NW10G20   29.89S
WINNIPEG       PTSUNNY   64  34  32 N22G29    29.94R
LYNN LAKE      MOSUNNY   54  34  47 NW14G22   29.90S
CHURCHILL      FLURRIES  28  25  86 S8        29.89F WCI  20
GILLAM         CLOUDY    30  25  80 W9        29.88S WCI  22
$$
                ***SASKATCHEWAN***

CITY           SKY/WX    TMP DP  RH WIND       PRES   REMARKS
ESTEVAN        CLOUDY    68  36  30 N18G25    30.10R
KINDERSLEY     PTSUNNY   64  25  22 NW12G22   30.20F
LLOYDMINSTER   MOSUNNY   59  25  27 W12G21    30.20F
PRINCE ALBERT  PTSUNNY   61  28  29 N15G24    30.12S
REGINA         CLOUDY    64  28  25 NW23G33   30.12F
YORKTON        MOSUNNY   66  32  28 W16G37    30.02F
N. BATTLEFORD  SUNNY     63  28  27 NW16G24   30.19F
LA RONGE       PTSUNNY   59  32  36 W18G25    30.08F
SASKATOON      PTSUNNY   64  21  19 NW17G30   30.15S
SWIFT CURRENT  SUNNY     64  27  24 N17G24    30.19F
$$
NOTE: THESE ARE AUTOMATED STATIONS WITH LIMITED QUALITY CONTROL
      "FAIR" INDICATES FEW OR NO CLOUDS BELOW 12,000 FEET WITH NO
      SIGNIFICANT WEATHER AND/OR OBSTRUCTIONS TO VISIBILITY.
      SKY/WX - SKY CONDITION AND SIGNIFICANT WEATHER.
      TMP - AIR TEMPERATURE.    DP   - DEWPOINT TEMPERATURE.
      RH  - RELATIVE HUMIDITY.  PRES - PRESSURE.
      HX  - HEAT INDEX.         WCI  - WIND CHILL INDEX.
$



USA.gov is the U.S. government's official web portal to all federal, state and local government web resources and services.